TimeAKST,TemperatureF,Dew PointF,Humidity,Sea Level PressureIn,VisibilityMPH,Wind Direction,Wind SpeedMPH,Gust SpeedMPH,PrecipitationIn,Events,Conditions,WindDirDegrees,DateUTC
12:53 AM,39.9,30.9,70,29.49,10.0,ENE,6.9,-,N/A,,Overcast,70,2012-12-28 09:53:00
1:53 AM,39.0,30.9,73,29.51,10.0,Calm,Calm,-,0.00,,Overcast,0,2012-12-28 10:53:00
3:53 AM,37.0,33.1,86,29.54,10.0,Calm,Calm,-,0.01,Rain,Light Rain,0,2012-12-28 12:53:00
4:53 AM,39.0,32.0,76,29.55,10.0,ESE,8.1,-,0.00,,Overcast,120,2012-12-28 13:53:00
5:53 AM,39.0,33.1,79,29.57,10.0,East,8.1,-,0.00,Rain,Light Rain,100,2012-12-28 14:53:00
6:53 AM,39.9,32.0,73,29.57,10.0,East,6.9,-,0.00,,Overcast,80,2012-12-28 15:53:00
7:53 AM,39.9,32.0,73,29.60,10.0,ESE,5.8,-,0.00,,Overcast,120,2012-12-28 16:53:00
8:53 AM,41.0,32.0,70,29.62,10.0,ESE,10.4,17.3,N/A,,Overcast,120,2012-12-28 17:53:00
9:53 AM,39.9,32.0,73,29.66,10.0,ESE,4.6,-,N/A,,Overcast,110,2012-12-28 18:53:00
10:53 AM,41.0,33.1,73,29.68,10.0,ESE,8.1,-,N/A,,Overcast,110,2012-12-28 19:53:00
11:53 AM,39.9,33.1,77,29.72,10.0,ESE,5.8,-,N/A,,Overcast,120,2012-12-28 20:53:00
12:30 PM,41.0,33.8,76,29.71,10.0,ESE,5.8,-,N/A,,Overcast,110,2012-12-28 21:30:00
12:50 PM,41.0,33.8,76,29.72,10.0,SE,5.8,-,N/A,,Overcast,130,2012-12-28 21:50:00
12:53 PM,41.0,33.1,73,29.72,10.0,SE,5.8,-,N/A,,Overcast,130,2012-12-28 21:53:00
1:51 PM,41.0,33.8,76,29.74,10.0,East,5.8,-,N/A,,Overcast,100,2012-12-28 22:51:00
1:53 PM,39.9,33.1,77,29.74,10.0,East,4.6,-,N/A,,Overcast,100,2012-12-28 22:53:00
2:53 PM,39.9,32.0,73,29.74,10.0,SE,3.5,-,N/A,,Overcast,140,2012-12-28 23:53:00
3:53 PM,39.9,32.0,73,29.76,10.0,ESE,3.5,-,N/A,,Overcast,120,2012-12-29 00:53:00
4:53 PM,39.9,32.0,73,29.77,10.0,ENE,3.5,-,N/A,,Overcast,60,2012-12-29 01:53:00
5:53 PM,39.9,33.1,77,29.78,10.0,Calm,Calm,-,N/A,,Overcast,0,2012-12-29 02:53:00
7:53 PM,39.9,33.1,77,29.79,10.0,East,4.6,-,N/A,,Overcast,100,2012-12-29 04:53:00
8:53 PM,41.0,33.1,73,29.80,10.0,ESE,5.8,-,N/A,,Overcast,110,2012-12-29 05:53:00
9:53 PM,41.0,33.1,73,29.79,10.0,East,4.6,-,N/A,,Overcast,90,2012-12-29 06:53:00
10:53 PM,42.1,33.1,70,29.80,10.0,East,6.9,21.9,N/A,,Overcast,100,2012-12-29 07:53:00
11:53 PM,43.0,32.0,65,29.80,10.0,ESE,12.7,21.9,N/A,,Overcast,110,2012-12-29 08:53:00